Presure
172 174 191 191 182 185 174 189 135 166 200 204 211 184 201 186 192 212 206 189 179 195 198 194 202 216 194 213 201 230 237 236 283 269 224 223 222 219 216 230 241 233 219 191 198 191 157
184 189 185 175 181 181 179 180 188 199 188 206 169 171 192 213 158 220 169 218 167 228 181 231 174 177 192 183 221 209 200 220 248 230 238 277 234 242 228 207 226 225 238 246 221 171 201
181 147 178 180 173 174 170 183 161 180 175 182 182 222 183 164 199 215 177 177 211 168 210 217 177 223 192 224 228 210 212 206 221 230 248 214 278 212 226 237 263 239 154 237 236 149 170
143 168 181 172 168 171 171 158 166 163 181 198 194 173 143 170 186 170 161 196 150 200 204 192 211 173 169 198 218 225 184 207 190 197 190 259 196 271 208 293 280 215 277 250 242 219 224
172 180 171 165 163 177 153 203 183 184 161 191 199 190 157 152 182 175 173 196 150 181 183 191 195 214 201 188 199 202 230 222 196 198 249 198 256 254 262 285 303 301 274 282 258 245 253
168 178 166 167 152 166 160 167 172 153 171 157 142 139 156 200 206 185 183 199 165 198 171 172 194 205 183 191 206 214 200 193 207 202 213 225 226 260 254 304 267 335 296 320 284 264 262
139 157 180 162 178 200 158 188 164 143 133 143 183 150 205 190 178 181 159 153 177 177 200 205 211 176 165 217 205 212 224 210 211 218 185 248 263 261 281 271 309 362 344 306 202 289 295
170 164 154 147 156 142 157 151 170 191 155 182 153 173 194 212 151 201 173 135 187 170 174 211 198 206 203 162 182 168 183 218 196 221 219 265 258 274 286 275 320 351 361 367 314 273 317
155 167 171 131 170 178 142 146 151 162 173 154 199 168 163 179 180 168 172 174 168 201 197 188 195 177 184 188 169 201 208 210 214 222 232 244 263 279 306 282 363 357 354 328 335 316 351
153 143 170 163 181 148 178 145 143 150 186 168 199 195 167 199 207 164 198 158 145 200 218 196 206 196 207 190 197 219 222 219 217 227 252 251 274 286 315 312 366 339 339 338 332 336 341
180 153 190 164 150 173 176 141 196 146 183 186 146 142 163 177 187 183 172 199 207 171 167 161 204 204 209 194 182 214 219 211 227 227 264 266 280 339 327 367 362 357 340 347 328 331 359
188 151 156 157 152 158 160 177 179 173 183 155 179 194 145 165 201 190 175 200 158 163 172 217 168 195 209 210 207 209 215 214 224 227 263 279 286 366 372 364 361 337 341 312 297 309 370
138 168 133 184 159 148 186 181 164 169 148 172 177 162 180 205 169 179 191 207 190 163 196 203 188 197 194 213 202 199 224 218 217 239 241 330 385 364 378 377 370 363 352 331 315 343 353
161 174 150 168 165 145 143 172 173 158 183 127 167 184 158 180 203 178 183 141 195 210 195 205 175 181 189 196 209 216 216 217 224 261 257 363 343 384 365 348 367 360 352 339 329 336 312
147 176 159 171 160 180 177 172 163 156 156 160 169 172 195 182 209 196 203 197 195 216 186 207 193 216 188 208 207 217 217 225 234 274 306 395 336 377 379 345 354 340 342 337 337 335 329
169 166 167 155 137 175 176 170 177 181 138 160 162 171 163 190 197 186 200 197 172 202 203 182 199 212 206 207 211 211 225 234 289 301 360 344 367 375 365 356 358 364 348 336 327 329 322
168 167 162 163 152 161 164 161 157 145 163 188 165 140 176 169 195 148 194 187 191 186 178 194 207 204 213 206 209 221 224 237 315 366 345 350 389 367 353 334 340 345 352 339 329 316 295
165 164 138 159 146 173 159 159 176 172 171 181 141 148 154 156 153 176 197 207 197 198 180 200 214 198 209 212 218 220 230 242 307 344 342 351 384 384 365 342 333 327 334 337 313 315 308
160 163 169 167 161 159 171 146 178 181 162 187 177 186 186 181 158 183 197 193 184 205 202 197 203 202 223 220 224 219 233 293 354 342 336 363 377 382 365 353 331 316 306 340 333 325 306
156 161 163 165 174 156 180 161 181 161 188 145 176 188 191 187 195 182 195 208 186 204 187 192 210 201 215 216 227 236 285 359 343 338 359 384 413 398 389 372 341 327 308 336 333 313 313
161 164 158 169 166 172 173 175 131 194 150 191 158 165 178 177 188 207 209 188 193 184 213 191 213 218 222 226 232 234 250 350 347 328 355 360 349 339 396 382 370 339 315 307 325 329 319
163 160 172 164 168 155 180 133 163 146 189 200 174 195 189 186 196 189 187 184 191 204 198 211 220 217 215 224 239 362 358 308 355 359 354 342 338 335 318 341 387 369 344 307 295 333 331
164 158 177 164 177 181 161 167 166 147 178 175 182 191 190 183 199 180 208 202 177 210 200 209 218 220 237 235 270 374 357 372 383 390 416 405 386 378 340 321 311 379 296 345 319 295 325
178 170 172 146 182 171 176 178 193 153 188 177 185 187 198 180 178 211 195 213 210 200 214 235 221 228 232 255 357 401 394 411 449 449 435 427 419 405 387 369 326 311 374 360 352 326 292
176 172 174 172 163 181 175 190 159 184 179 190 194 192 182 185 190 201 198 177 189 214 205 222 224 242 243 239 448 428 459 475 451 470 162 457 455 442 427 414 378 341 316 371 365 128 337
171 181 184 177 183 185 169 183 186 193 180 178 207 184 180 180 206 186 209 195 191 212 214 220 216 236 310 434 97 447 482 461 459 441 439 436 255 330 163 419 409 410 404 342 313 363 348
159 178 186 162 162 174 188 163 177 200 195 169 196 178 183 205 191 189 189 205 224 216 223 231 228 251 498 222 465 500 482 462 442 441 438 433 199 402 92 308 399 401 243 402 456 370 326
151 178 185 172 156 185 172 191 185 172 189 188 202 188 170 195 190 191 196 201 230 217 220 248 247 387 484 496 484 465 451 454 441 441 436 430 412 136 96 223 266 377 391 374 412 436 447
171 178 183 164 145 174 162 169 188 155 182 192 200 171 199 202 186 214 187 226 228 216 245 242 258 453 460 442 464 465 454 437 431 462 421 400 393 382 393 379 250 376 386 393 400 400 405
Wind_Speed
38 38 39 34 37 37 36 37 27 34 34 36 36 44 41 42 51 25 21 55 38 51 49 48 34 37 30 31 45 35 42 35 50 41 50 56 58 57 57 62 64 65 68 59 62 63 55
35 34 33 36 36 37 38 37 34 32 43 29 39 43 52 25 28 35 40 25 33 30 54 32 42 51 56 45 45 43 53 50 54 49 49 44 60 64 66 66 67 68 72 75 70 58 65
35 26 32 34 36 39 38 43 38 42 43 51 52 28 40 46 44 28 60 63 34 43 27 34 50 37 64 43 44 53 51 51 55 59 76 49 56 63 65 72 74 79 54 78 77 56 63
25 32 32 34 36 40 43 39 46 49 47 31 28 55 39 61 44 64 48 46 33 50 38 63 42 59 46 59 55 46 58 61 47 56 55 71 52 61 57 59 66 65 76 82 86 72 76
29 30 32 33 37 37 40 29 39 33 53 37 32 37 54 44 54 61 37 42 37 53 67 61 47 52 48 67 62 55 69 57 71 54 91 59 69 61 64 66 63 68 78 79 85 85 90
30 28 34 37 38 44 41 47 41 42 46 58 49 48 41 28 40 45 49 47 69 52 61 75 67 49 72 54 57 71 63 67 64 70 72 78 70 77 67 74 63 70 75 71 81 91 92
32 32 28 38 29 28 46 27 50 49 46 50 35 59 48 31 53 53 41 61 41 45 51 59 67 74 60 73 54 65 78 64 66 72 68 100 85 85 83 71 70 60 61 70 78 82 92
29 32 36 40 44 44 46 54 47 35 62 44 66 53 43 56 61 50 60 44 57 68 64 66 57 64 61 56 68 60 77 78 80 88 77 98 92 90 85 72 68 54 52 49 62 83 79
34 34 36 45 39 33 50 43 60 50 45 69 47 49 54 61 40 64 52 65 50 57 52 73 59 72 76 75 80 81 86 69 78 90 102 107 98 95 87 73 55 51 51 50 54 64 60
36 40 35 42 31 50 38 60 63 62 50 52 59 49 57 56 62 44 63 76 51 60 76 59 75 75 80 78 76 92 98 91 88 105 115 103 102 97 83 69 51 50 50 47 47 53 55
24 42 29 41 50 37 36 59 51 53 49 59 73 65 66 51 59 42 67 64 76 74 72 81 73 80 87 77 87 91 98 86 110 103 115 108 104 88 74 56 53 48 49 48 48 51 52
27 41 44 45 52 51 52 36 43 45 55 65 56 68 63 66 68 58 74 77 61 74 77 94 87 78 95 96 90 99 104 100 110 103 117 110 105 70 59 52 50 50 47 47 49 49 47
44 39 47 40 47 58 50 55 53 48 51 61 58 58 58 79 71 63 64 87 65 86 72 87 79 86 87 105 94 93 117 106 108 121 115 101 61 62 55 47 44 46 45 45 46 43 41
41 35 50 39 40 59 63 46 53 51 64 45 58 65 63 58 81 61 64 58 82 100 79 102 91 89 90 96 112 116 113 109 114 125 113 84 66 49 50 49 41 42 44 42 44 42 41
48 45 45 43 45 53 50 52 46 59 60 63 61 59 83 71 89 71 90 85 85 107 76 106 91 114 94 113 112 119 113 124 127 119 109 66 68 44 43 47 43 42 41 42 43 39 37
48 48 47 49 41 56 59 56 64 64 60 65 65 66 67 76 89 69 93 87 79 100 104 92 102 110 116 110 115 109 130 137 127 121 89 87 59 37 38 46 44 41 39 41 42 40 37
50 50 49 48 49 50 51 59 63 51 58 75 63 73 65 71 94 82 99 100 88 100 86 102 123 110 119 110 112 121 127 135 124 91 93 82 55 35 35 48 47 44 39 42 43 45 40
52 52 54 51 58 65 56 58 76 69 67 78 70 84 88 87 77 74 102 109 102 103 87 109 124 108 116 122 120 125 135 143 111 95 89 78 56 40 32 44 44 43 43 44 44 46 46
54 55 61 61 56 57 68 61 76 76 56 83 70 85 83 88 88 88 104 101 88 113 113 109 120 114 129 128 126 120 140 126 93 89 85 69 55 46 36 41 44 47 47 47 49 47 48
55 58 59 63 70 60 75 67 80 64 87 82 67 86 95 90 109 96 105 116 92 117 100 110 129 114 128 127 131 138 137 96 95 86 75 62 48 46 42 43 46 47 50 48 51 50 52
60 63 54 69 68 73 77 72 60 86 84 91 76 78 81 96 95 117 118 96 105 104 133 111 133 128 137 132 134 132 137 97 88 84 71 63 55 50 44 46 48 47 52 55 51 56 54
63 59 70 68 72 61 79 61 56 79 90 99 70 103 98 94 111 98 99 93 115 128 120 134 132 131 128 136 145 107 97 77 85 74 67 66 58 52 46 47 50 50 54 57 57 56 60
67 59 72 66 79 82 67 78 55 78 80 73 94 104 109 90 119 99 129 118 98 136 129 132 132 131 144 137 140 101 97 85 78 65 49 50 54 52 46 50 47 51 41 60 63 61 62
78 71 74 62 79 77 83 72 97 82 98 82 97 105 116 96 95 132 120 134 135 130 141 142 136 138 138 146 112 89 85 68 51 47 45 47 46 46 43 46 52 53 52 58 63 63 64
77 75 75 77 61 87 70 96 67 95 88 106 107 110 94 106 116 127 127 97 115 144 132 139 140 149 140 122 72 38 49 35 42 31 18 33 34 34 36 41 47 55 55 54 58 21 68
75 83 87 85 90 90 79 94 101 105 90 88 114 97 99 96 130 108 141 128 115 136 136 140 134 140 141 81 35 53 32 34 26 30 29 28 22 24 19 28 33 34 39 56 60 59 66
53 90 95 58 54 81 96 69 87 116 106 78 120 93 108 133 119 116 113 137 147 136 141 142 139 148 47 37 43 21 22 22 22 21 19 21 16 22 17 25 28 29 32 37 31 47 57
54 87 96 72 57 99 72 111 101 86 105 112 123 113 91 133 114 119 130 126 150 139 141 148 140 92 45 23 24 24 22 16 13 16 10 8 8 18 20 21 23 25 24 30 28 24 29
83 87 96 61 69 83 70 73 106 81 105 119 128 90 141 139 115 148 114 154 148 142 147 144 154 57 44 22 24 23 16 12 10 4 4 2 3 7 4 13 22 21 19 20 20 18 23
Wind_Direction
316 321 324 327 327 335 332 338 325 334 348 352 353 345 347 346 350 9 359 342 335 337 339 335 330 323 304 345 321 336 340 308 357 310 281 282 279 274 270 267 261 258 258 253 252 253 256
319 321 325 327 332 338 339 336 343 352 349 357 336 339 347 6 309 26 340 15 313 12 334 8 322 316 328 312 334 335 316 329 355 326 309 305 280 275 276 270 271 267 260 258 256 249 250
317 328 328 330 335 338 334 340 328 344 344 347 345 15 342 339 334 358 340 337 4 334 340 353 329 350 324 353 350 304 308 301 322 331 348 301 317 288 282 272 265 266 259 268 265 251 253
323 328 332 333 329 335 337 337 341 338 346 348 337 339 322 338 336 333 346 318 313 345 340 328 330 327 286 315 344 342 316 316 309 298 300 335 285 317 272 293 267 275 258 258 261 257 259
325 327 330 328 331 342 339 354 343 345 336 339 338 327 337 320 331 328 327 320 318 337 315 316 341 348 319 316 315 324 351 335 305 302 344 302 324 311 310 293 291 270 257 255 255 258 256
324 332 326 332 322 338 332 339 337 330 332 333 328 329 331 357 360 314 337 354 330 337 314 324 337 333 315 319 320 347 306 324 309 322 323 318 315 318 309 302 285 287 265 262 252 253 252
325 323 333 331 337 347 336 348 329 327 327 329 314 332 2 311 319 329 331 335 314 338 338 349 355 318 324 351 324 337 346 321 321 328 304 338 326 320 316 312 298 291 278 264 250 254 251
325 321 324 322 330 329 329 330 332 346 327 331 331 334 338 354 334 335 317 311 346 324 318 352 332 343 338 319 310 314 316 339 314 335 326 332 323 320 317 310 303 296 286 279 256 252 257
321 323 324 322 324 322 325 322 328 335 333 325 356 332 338 333 312 323 338 306 310 336 335 339 327 322 306 311 318 326 328 324 330 335 334 336 322 320 315 309 301 291 283 274 266 260 261
318 319 319 325 323 328 323 328 329 329 356 323 356 345 316 349 345 326 345 322 322 343 355 329 348 325 342 309 317 342 343 338 331 336 335 332 322 319 313 308 293 295 286 280 271 265 260
309 325 325 329 327 313 329 325 342 317 340 355 323 328 320 323 345 327 312 351 350 312 329 321 343 336 340 317 311 338 339 329 337 335 332 327 321 314 311 301 293 292 284 279 272 265 258
297 320 320 318 320 311 318 329 334 324 347 316 347 351 326 312 344 333 338 352 333 326 320 349 315 333 343 337 331 334 338 335 336 335 332 325 319 311 303 297 292 289 282 276 271 268 263
319 310 315 331 315 316 336 335 325 326 317 339 343 327 331 349 312 328 335 350 337 314 330 343 323 331 330 343 329 325 340 334 331 332 332 320 313 309 298 290 282 278 274 273 270 266 266
305 299 315 316 316 317 314 335 334 325 341 315 335 339 331 331 346 324 333 325 343 344 338 342 317 319 323 328 339 336 334 332 332 331 330 318 317 303 299 292 279 272 268 268 268 267 264
315 314 308 321 314 332 333 335 324 316 307 316 326 328 346 340 342 337 347 343 343 345 327 344 333 343 322 339 335 335 333 333 331 327 320 313 319 306 293 290 278 272 266 264 263 259 259
309 310 318 314 316 336 333 332 335 329 315 317 318 321 307 336 347 336 345 345 326 342 343 324 337 341 338 335 335 330 335 334 324 320 316 316 314 304 287 283 270 262 260 259 261 259 255
310 312 317 323 314 324 325 330 320 323 318 333 331 326 331 318 340 321 344 336 338 333 321 337 341 337 338 331 330 332 334 333 321 316 316 314 305 305 287 278 276 274 254 251 251 254 247
311 314 304 322 308 330 320 318 328 329 317 334 324 314 310 310 325 323 344 342 342 339 322 337 340 329 336 331 332 333 330 329 323 318 315 312 301 298 280 272 271 270 264 253 252 250 250
309 314 317 322 322 319 323 307 326 330 316 326 334 344 338 336 323 331 343 338 331 339 337 332 334 332 336 334 331 329 330 326 317 316 314 308 299 291 278 268 264 267 265 249 248 243 247
307 313 317 319 320 316 316 320 324 323 331 308 335 342 340 341 341 334 340 342 330 337 326 327 337 328 333 331 333 331 329 319 316 315 312 303 285 278 272 258 257 256 261 251 245 247 240
308 310 312 318 317 319 318 321 323 326 311 331 306 317 332 337 338 339 340 331 334 326 336 325 335 333 333 332 330 326 327 316 314 312 309 304 301 293 269 261 254 245 254 255 246 240 241
306 312 310 315 313 309 317 314 308 301 330 332 326 337 338 337 339 337 329 329 334 336 329 335 336 332 328 328 329 316 316 314 311 309 304 300 295 289 284 275 257 249 239 252 253 242 236
304 310 310 308 309 316 305 320 308 303 332 327 331 336 336 332 337 326 338 334 321 334 333 330 331 329 331 328 329 317 314 313 309 306 292 285 287 285 281 274 268 254 249 239 242 248 242
298 307 304 310 315 318 317 324 325 310 330 333 332 335 336 332 327 335 333 336 336 331 333 333 330 329 328 328 322 317 315 310 296 291 286 282 277 274 271 266 263 259 249 244 241 243 249
302 304 306 311 308 320 321 326 303 323 330 332 327 332 333 335 334 335 336 321 327 332 328 330 328 329 325 324 316 306 308 296 295 292 296 285 283 281 273 263 256 256 252 249 244 246 239
304 307 308 317 318 321 309 326 325 324 330 330 325 333 330 326 333 329 335 331 326 330 329 328 326 326 329 318 308 316 312 303 293 292 289 285 290 286 292 275 265 262 259 247 246 242 244
304 311 310 302 310 311 320 312 326 319 324 323 328 330 333 329 329 328 326 329 331 329 329 328 324 330 316 313 317 317 315 312 303 292 283 287 279 288 274 274 264 265 283 260 274 253 245
298 309 309 310 302 316 321 322 321 319 324 330 328 331 321 330 328 327 328 328 331 329 326 328 328 327 324 316 324 320 321 321 310 303 314 294 293 273 277 289 286 277 281 263 275 286 282
309 305 309 314 297 322 309 319 324 309 321 328 327 323 331 329 324 332 323 332 330 327 328 326 329 326 329 320 320 320 332 325 330 274 28 300 218 258 298 294 285 299 314 318 312 308 297